Date String (YYYY-MM-DD hh:mm:ss) UTC,Instrument flags,Ambient pressure (hPa),Sample flow (lpm),Bypass flow (lpm),Sample temperature (°C),Ambient temperature (°C),ASC tube jacket temperature (°C),LED temperature (°C),Box temperature (°C),Sample RH (%),Span deviation,Mass concentration (μg/m³),Mass concentration (μg/m³),Mass concentration (μg/m³)
DateTimeUTC,F1_M11,P_M11,Q1_M11,Q2_M11,T1_M11,T2_M11,T3_M11,T4_M11,T5_M11,U1_M11,ZSPAN_M11,X2_M11,X0_M11,X1_M11
2022-02-01 02:00:00,,0815.0,4.99,0.00,24.8,24.2,00.0,33.8,26.6,04.5,0000.0,0001.27,0004.16,0001.04
2022-02-01 02:01:00,,0815.1,5.01,0.00,24.8,24.2,00.0,33.8,26.6,03.9,0000.0,0001.30,0004.06,0001.04
2022-02-01 02:02:00,,0815.3,5.01,0.00,24.8,24.2,00.0,33.8,26.6,04.0,0000.0,0001.34,0004.19,0001.05
2022-02-01 02:03:00,,0815.2,5.00,0.00,24.8,24.1,00.0,33.8,26.6,05.2,0000.0,0001.49,0004.47,0001.17
2022-02-01 02:04:00,,0815.2,4.99,0.00,24.8,24.1,00.0,33.8,26.6,05.8,0000.0,0001.78,0005.17,0001.39
2022-02-01 02:05:00,,0815.2,5.00,0.00,24.8,24.1,00.0,33.8,26.6,06.2,0000.0,0002.05,0005.60,0001.64
2022-02-01 02:06:00,,0815.1,4.99,0.00,24.8,24.1,00.0,33.8,26.6,04.7,0000.0,0002.22,0006.08,0001.80
2022-02-01 02:07:00,,0815.0,5.02,0.00,24.8,24.2,00.0,33.8,26.7,04.1,0000.0,0002.23,0006.39,0001.81
2022-02-01 02:08:00,,0815.0,5.00,0.00,24.8,24.2,00.0,33.8,26.7,04.3,0000.0,0002.29,0005.49,0001.83
2022-02-01 02:09:00,,0814.9,4.99,0.00,24.9,24.2,00.0,33.8,26.7,04.1,0000.0,0002.30,0004.33,0001.86
2022-02-01 02:10:00,,0815.1,5.01,0.00,24.9,24.2,00.0,33.8,26.7,04.0,0000.0,0002.32,0004.41,0001.87
2022-02-01 02:11:00,,0815.3,4.99,0.00,24.8,24.1,00.0,33.8,26.7,03.5,0000.0,0002.26,0004.50,0001.84
2022-02-01 02:12:00,,0815.2,5.01,0.00,24.9,24.2,00.0,33.8,26.7,03.5,0000.0,0002.21,0004.40,0001.83
2022-02-01 02:13:00,,0815.2,4.99,0.00,24.9,24.2,00.0,33.8,26.7,03.6,0000.0,0002.15,0004.46,0001.81
2022-02-01 02:14:00,,0815.3,5.02,0.00,24.9,24.2,00.0,33.8,26.7,04.2,0000.0,0001.98,0004.27,0001.69
2022-02-01 02:15:00,,0815.4,4.98,0.00,24.9,24.2,00.0,33.8,26.7,04.0,0000.0,0001.69,0004.17,0001.47
2022-02-01 02:16:00,,0816.0,5.01,0.00,24.9,24.2,00.0,33.8,26.7,04.4,0000.0,0001.43,0004.29,0001.21
2022-02-01 02:17:00,,0816.0,4.99,0.00,24.9,24.1,00.0,33.8,26.6,06.5,0000.0,0001.59,0004.26,0001.35
2022-02-01 02:18:00,,0815.9,5.02,0.00,24.8,24.1,00.0,33.8,26.6,07.3,0000.0,0002.24,0005.56,0001.92
2022-02-01 02:19:00,,0816.0,4.98,0.00,24.8,24.0,00.0,33.8,26.6,07.7,0000.0,0002.78,0006.44,0002.45
2022-02-01 02:20:00,,0815.6,5.01,0.00,24.8,24.0,00.0,33.8,26.6,07.8,0000.0,0003.31,0007.33,0003.04
2022-02-01 02:21:00,,0815.6,5.00,0.00,24.8,24.0,00.0,33.8,26.6,07.7,0000.0,0003.68,0007.85,0003.43
2022-02-01 02:22:00,,0816.0,4.99,0.00,24.8,24.1,00.0,33.8,26.6,06.6,0000.0,0003.97,0008.09,0003.71
2022-02-01 02:23:00,,0816.0,5.02,0.00,24.8,24.0,00.0,33.8,26.6,06.1,0000.0,0004.19,0008.42,0003.90
2022-02-01 02:24:00,,0816.1,4.99,0.00,24.8,24.0,00.0,33.8,26.5,06.1,0000.0,0004.43,0008.64,0004.10
2022-02-01 02:25:00,,0815.9,5.00,0.00,24.7,24.0,00.0,33.8,26.5,06.3,0000.0,0004.68,0008.87,0004.32
2022-02-01 02:26:00,,0815.8,5.02,0.00,24.7,23.9,00.0,33.8,26.5,06.2,0000.0,0004.90,0009.54,0004.52
2022-02-01 02:27:00,,0815.9,4.98,0.00,24.7,23.9,00.0,33.8,26.5,05.9,0000.0,0005.11,0009.45,0004.71
2022-02-01 02:28:00,,0816.0,5.01,0.00,24.7,23.9,00.0,33.8,26.5,05.6,0000.0,0005.19,0009.49,0004.81
2022-02-01 02:29:00,,0815.9,4.98,0.00,24.7,23.9,00.0,33.7,26.5,05.8,0000.0,0005.04,0009.04,0004.69
2022-02-01 02:30:00,,0816.0,5.02,0.00,24.7,23.9,00.0,33.7,26.4,05.5,0000.0,0004.91,0009.15,0004.55
2022-02-01 02:31:00,,0815.8,4.98,0.00,24.6,23.8,00.0,33.7,26.3,06.0,0000.0,0004.75,0009.06,0004.40
2022-02-01 02:32:00,,0815.6,5.01,0.00,24.6,23.7,00.0,33.7,26.3,07.3,0000.0,0004.70,0009.06,0004.35
2022-02-01 02:33:00,,0815.7,4.99,0.00,24.5,23.6,00.0,33.7,26.2,07.6,0000.0,0004.81,0009.53,0004.42
2022-02-01 02:34:00,,0815.7,5.01,0.00,24.5,23.6,00.0,33.7,26.1,07.3,0000.0,0005.03,0010.11,0004.63
2022-02-01 02:35:00,,0815.8,4.99,0.00,24.4,23.5,00.0,33.6,26.1,07.5,0000.0,0005.25,0010.41,0004.81
2022-02-01 02:36:00,,0815.8,5.01,0.00,24.4,23.5,00.0,33.6,26.0,07.7,0000.0,0005.43,0010.73,0004.99
2022-02-01 02:37:00,,0815.8,5.00,0.00,24.4,23.4,00.0,33.6,26.1,07.5,0000.0,0005.59,0010.55,0005.14
2022-02-01 02:38:00,,0815.7,4.98,0.00,24.4,23.4,00.0,33.5,26.1,07.4,0000.0,0005.77,0010.44,0005.33
2022-02-01 02:39:00,,0815.7,5.00,0.00,24.3,23.5,00.0,33.5,26.1,07.2,0000.0,0005.97,0010.67,0005.52
2022-02-01 02:40:00,,0815.6,5.00,0.00,24.3,23.5,00.0,33.5,26.1,06.9,0000.0,0006.10,0010.79,0005.65
2022-02-01 02:41:00,,0815.7,5.00,0.00,24.3,23.5,00.0,33.5,26.1,06.9,0000.0,0006.19,0010.51,0005.74
2022-02-01 02:42:00,,0815.6,5.00,0.00,24.3,23.5,00.0,33.5,26.1,07.2,0000.0,0006.31,0011.32,0005.85
2022-02-01 02:43:00,,0815.7,5.00,0.00,24.3,23.5,00.0,33.5,26.1,07.2,0000.0,0006.30,0011.19,0005.86
2022-02-01 02:44:00,,0815.8,5.01,0.00,24.3,23.5,00.0,33.5,26.1,07.2,0000.0,0006.21,0010.82,0005.79
2022-02-01 02:45:00,,0816.0,5.00,0.00,24.3,23.5,00.0,33.4,26.1,07.2,0000.0,0006.09,0010.62,0005.69
2022-02-01 02:46:00,,0816.3,5.01,0.00,24.3,23.5,00.0,33.4,26.0,07.2,0000.0,0005.93,0010.37,0005.58
2022-02-01 02:47:00,,0816.2,5.00,0.00,24.2,23.5,00.0,33.4,25.9,07.4,0000.0,0005.82,0010.19,0005.47
2022-02-01 02:48:00,,0816.2,4.99,0.00,24.2,23.4,00.0,33.4,25.9,07.4,0000.0,0005.69,0009.92,0005.35
2022-02-01 02:49:00,,0816.3,5.00,0.00,24.2,23.4,00.0,33.4,25.9,07.7,0000.0,0005.60,0009.94,0005.23
2022-02-01 02:50:00,,0816.3,4.99,0.00,24.2,23.3,00.0,33.3,25.8,07.8,0000.0,0005.54,0010.37,0005.13
2022-02-01 02:51:00,,0816.3,5.01,0.00,24.1,23.3,00.0,33.3,25.8,07.8,0000.0,0005.54,0010.48,0005.10
2022-02-01 02:52:00,,0816.3,4.98,0.00,24.1,23.3,00.0,33.3,25.8,07.9,0000.0,0005.58,0010.59,0005.11
2022-02-01 02:53:00,,0816.4,5.01,0.00,24.1,23.3,00.0,33.3,25.9,08.0,0000.0,0005.55,0009.65,0005.09
2022-02-01 02:54:00,,0816.4,4.99,0.00,24.1,23.3,00.0,33.3,25.9,07.8,0000.0,0005.55,0009.74,0005.07
2022-02-01 02:55:00,,0816.3,5.01,0.00,24.1,23.3,00.0,33.3,25.9,07.6,0000.0,0005.53,0009.75,0005.06
2022-02-01 02:56:00,,0816.3,5.01,0.00,24.1,23.3,00.0,33.3,25.9,07.7,0000.0,0005.53,0009.58,0005.07
2022-02-01 02:57:00,,0816.2,4.99,0.00,24.1,23.3,00.0,33.2,25.9,07.5,0000.0,0005.54,0009.87,0005.09
2022-02-01 02:58:00,,0816.2,5.01,0.00,24.1,23.3,00.0,33.2,25.9,07.5,0000.0,0005.56,0009.95,0005.11
2022-02-01 02:59:00,,0816.0,5.02,0.00,24.1,23.3,00.0,33.2,25.9,07.4,0000.0,0005.58,0010.04,0005.12
